BREEZE-KM R/B

Satellite information

Favourite Embed

Satellite Type and Status

ROCKET BODYIN ORBIT

Key statistics

Satellite BREEZE-KM R/B at a glance.

Uptime

2298

Days in orbit

Revolutions

≈ 14.3

Per day

Orbit

SSO

Sun Synchronous Orbit

Inclination

99.1

Latest

Satellite identification and parameters

Extended collection of information and parameters for BREEZE-KM R/B.

Object identification

Identified? True

Debris? False

Object name: BREEZE-KM R/B

International designator: 2019-057B

Object number (NORAD): 44518

Object ID (CCSDS): 44518

Country: COMMONWEALTH OF INDEPENDENT STATES (CIS)

Current information (Y/N): Y

RCS size: LARGE

Orbital parameters

Period: 101.02 minutes

Inclination: 99.1373 deg

SMA: 7185.06 km

Apoapsis: 950.381 km

Periapsis: 663.47 km

RAAN: 119.6659 deg

Eccentricy: 0.01996578

Argument of periapsis: 147.2056 deg

Mean anomaly: 214.17 deg

Mean motion: 14.25466898 rev/day

Mean motion (dot): 0.00000322 rev/day2

B* drag term: 0.00012807719 1/REarth

Two-line elements (TLE)

Creation date: Dec. 14, 2025, 3:07 a.m.

Reference frame: TEME

Reference center: EARTH

Epoch: Dec. 13, 2025, 8:41 a.m. UTC

TLE line 0: 0 BREEZE-KM R/B

TLE line 1: 1 44518U 19057B 25347.36195980 .00000322 00000-0 12808-3 0 9995

TLE line 2: 2 44518 99.1373 119.6659 0199658 147.2056 214.1700 14.25466898327073

Live tracking on map

Real-time ground track for satellite BREEZE-KM R/B.

In-orbit conjunctions

A list of the most updated potential collisions computed for object BREEZE-KM R/B.

Target Orbit TCA Probability of collision Miss distance Type
COSMOS 2251 DEB LEO 2025-08-24 22:57:24 0.00192587 96.0 (m) DEBRIS
FENGYUN 1C DEB SSO 2025-07-22 15:46:46 0.0002841385 730.0 (m) DEBRIS

Associated space launch

Geo-IK-2 is a Russian geodesy mission to deliver precise three-dimensional maps of the Earth’s surface and gravitational data for use in scientific studies and military applications. Using GLONASS for accurate positioning data, the 1400kg satellite will operate in a 1000km polar orbit.

BREEZE-KM R/B was lifted into orbit during the mission ‘Rokot / Briz-KM | Geo-IK-2 N13L (Kosmos 2540)’, on board a Rokot/Briz-KM space rocket.

The launch took place on Aug. 30, 2019, 2 p.m. from 133/3 (133L).

For more information about the launch, click the button.

Launch to space Rokot / Briz-KM | Geo-IK-2 N13L (Kosmos 2540)
Rokot / Briz-KM | Geo-IK-2 N13L (Kosmos 2540)

Agency: N/A

Status: Launch Successful

Launch date: Aug. 30, 2019, 2 p.m. UTC

Rocket: Rokot/Briz-KM

Launch pad: 133/3 (133L)

Location: Plesetsk Cosmodrome, Russian Federation

...

Latest news about this satellite

News about space launch
Russia’s Rokot vehicle successfully launches Geo-IK-2 satellite

News about space launch
Russian military satellite orbited by Rockot launcher


Newsletter sign-up

Weekly statistics, charts and insights to help you stay on top of the space industry.